204  
ASUS41 KGYX 221110  
RWRGYX  
WEATHER ROUNDUP FOR MAINE AND NEW HAMPSHIRE  
NATIONAL WEATHER SERVICE GRAY ME  
600 AM EST THU FEB 22 2024  
 
* THESE REPORTS ARE NOT UNDER NWS QUALITY CONTROL AND/OR DO NOT  
REPORT WEATHER SUCH AS PRECIPITATION AND FOG.
 
 
MEZ002-005-006-010-012-015-018-020-021-024-026-027-029-221200-  
MAINE  
 
CITY SKY/WX TMP DP RH WIND PRES REMARKS
 
PORTLAND CLOUDY 30 23 75 W6 30.15F  
SANFORD* MOCLDY 15 13 91 CALM 30.15S  
BAR HARBOR CLOUDY 23 19 85 CALM 30.17F  
WISCASSET CLOUDY 30 22 72 S5 30.16F  
ROCKLAND* CLOUDY 30 23 75 S6 30.15F  
FRYEBURG* CLEAR 13 10 88 CALM 30.11F  
LEWISTONAUBURN CLOUDY 28 23 81 S5 30.13F  
AUGUSTA CLOUDY 29 22 75 VRB3 30.13F  
WATERVILLE* CLOUDY 28 23 81 S5 30.11F  
BANGOR CLOUDY 27 20 75 S5 30.15F  
GREENVILLE N/A 22 19 89 VRB6 30.00F  
MILLINOCKET CLOUDY 26 19 74 SE6 30.11F  
HOULTON CLOUDY 24 17 74 VRB7 30.10F  
PRESQUE ISLE CLEAR 15 14 95 S5 30.08F  
FRENCHVILLE MOCLDY 15 11 83 SE10 30.01F WCI 2  
CARIBOU CLEAR 19 14 81 S10 30.06F WCI 7  

 
 
NHZ002-005-008-009-011-012-014-221200-  
NEW HAMPSHIRE  
 
CITY SKY/WX TMP DP RH WIND PRES REMARKS
 
PORTSMOUTH* PTCLDY 24 20 86 CALM 30.14F  
ROCHESTER* PTCLDY 20 15 81 CALM 30.14S  
NASHUA CLEAR 18 18 100 CALM 30.14F  
MANCHESTER CLEAR 21 18 88 CALM 30.12F  
CONCORD CLEAR 17 15 92 CALM 30.11F  
LACONIA* CLEAR 16 15 96 CALM 30.11F  
BERLIN CLEAR 5 0 79 CALM 30.03F  
WHITEFIELD* CLEAR 10 6 84 CALM 30.02F  
JAFFREY* CLEAR 22 18 85 S5 30.07F  
KEENE* MOCLDY 18 16 93 CALM 30.11S  
LEBANON* PTCLDY 20 18 92 CALM 30.08R  
MT WASHINGTON* PTCLDY 19 3 49 W32 N/A WCI 0  

 
 
VTZ005-007-008-221200-  
VERMONT  
 
CITY SKY/WX TMP DP RH WIND PRES REMARKS
 
ST JOHNSBURY* N/A 22 17 81 MISG 30.03F  
MONTPELIER CLOUDY 25 18 74 S9 30.04F  
BURLINGTON CLOUDY 33 23 66 S13 29.98F  

 
 
MAZ007-012-024-CTZ003-RIZ002-NYZ038-NYZ072-221200-  
SOUTHERN NEW ENGLAND AND NY  
 
CITY SKY/WX TMP DP RH WIND PRES REMARKS
 
BOSTON PTCLDY 27 22 81 SW5 30.16F  
WORCESTER PTCLDY 21 18 88 SW6 30.08F  
NANTUCKET PTCLDY 28 24 85 N3 30.12F  
PROVIDENCE CLEAR 20 19 96 W5 30.17F  
HARTFORD MOCLDY 24 20 84 W3 30.15S  
ALBANY PTCLDY 30 22 72 SE6 30.07F  
NEW YORK CITY MOCLDY 36 24 62 S6 30.15S  

 
 
ANZ081-ANZ082-ANZ150-NHZ014-MEZ023>029-221200-  
COASTAL MARINE OBSERVATIONS  
 
STATION/POSITION TIME TEMP WIND PRES WAVE
 
AIR SEA DIR/SP/G HT/PER  
(UTC) (F) (DEG/KT/KT) (MB) (FT/S)  
MOUNT DESERT ROC 1100 30 110/ 7/ 8 1020.8F  
MATINICUS ROCK* 1000 30 130/ 4/ 6 1021.9F  
ISLE OF SHOALS* 1000 31 CALM / 1 1020.9F  
JEFFREYS LEDGE* 1056 41 N/A 3/ 6  
CASHES LEDGE BUO 1040 38 110/ 4/ 6 1020.8F  

 
   
............KEY...........
 
 
WCI - WIND CHILL  
TC - TEMPERATURE IN CELSIUS  
VSB - VISIBILITY IN MILES  
HX - HEAT INDEX  
FAIR- INDICATES FEW OR NO CLOUDS BELOW 12,000 FT, WITH NO  
SIGNIFICANT WEATHER AND/OR S TO VISIBILITY.  
 
 
 
CLICK HERE TO GO TO PREVIOUS BULLETINS.

The Nexlab ME Page
The Nexlab NH Page Main Text Page